Terminal Aerodrome Forecast
Issued by NWS

Home | Current Version | Previous Version | Text Only | Print | Product List | Glossary On
Versions: 1 2 3 4 5 6 7 8 9 10 11 12 13 14 15 16 17 18 19 20 21 22 23 24 25 26 27 28 29 30 31 32
000
FTUS43 KDLH 231600 AAC
TAFHIB
TAF AMD
KHIB 231631Z 2317/2412 11009KT P6SM BKN013 OVC027
      TEMPO 2317/2321 SCT013 BKN027
     FM232100 11010KT P6SM SCT035
     FM240100 10006KT P6SM BKN025
     FM240400 11008KT 5SM BR BKN012
     FM240800 12008KT 2SM BR OVC008=

USA.gov is the U.S. government's official web portal to all federal, state and local government web resources and services.